Regional Weather Roundup
Issued by NWS

Home | Current Version | Previous Version | Graphics & Text | Print | Product List | Glossary Off
Versions: 1 2 3 4 5 6 7 8 9 10 11 12 13 14 15 16 17 18 19 20 21 22 23 24 25 26 27 28 29 30 31 32 33 34 35 36 37 38 39 40 41 42 43 44 45 46 47 48 49 50

000
ASUS43 KDMX 241506
RWRIA

WEATHER ROUNDUP FOR IOWA
NATIONAL WEATHER SERVICE DES MOINES IA
1000 AM CDT TUE APR 24 2018

NOTE: "FAIR" INDICATES FEW OR NO CLOUDS BELOW 12,000 FEET WITH NO
SIGNIFICANT WEATHER AND/OR OBSTRUCTIONS TO VISIBILITY.

* - THESE STATIONS ARE NOT NWS STATIONS...THUS NOT UNDER NWS
QUALITY CONTROL.  THEY ALSO DO NOT REPORT WEATHER SUCH
AS PRECIPITATION OR FOG.

IAZ001>003-012>014-020>022-031>034-043>046-241600-
   NORTHWEST IOWA

CITY           SKY/WX    TMP DP  RH WIND       PRES   REMARKS
CARROLL *      MOSUNNY   61  41  48 NE3       30.14S
CHEROKEE *     CLOUDY    55  45  69 N3        30.16S
DENISON *      MOSUNNY   61  45  55 CALM      30.16S
LE MARS *      CLOUDY    52  43  71 MISG      30.18R
ORANGE CITY *  CLOUDY    54  45  71 N5        30.18R
SHELDON *      CLOUDY    52  45  76 N5        30.17R
SIOUX CITY     CLOUDY    54  42  64 NW10      30.17R
SPENCER        CLOUDY    60  43  53 N6        30.17R
STORM LAKE *   PTSUNNY   61  41  48 NE7       30.15S
$$

IAZ055>058-069>071-079>083-090>094-241600-
   SOUTHWEST IOWA

CITY           SKY/WX    TMP DP  RH WIND       PRES   REMARKS
ATLANTIC *     SUNNY     63  39  42 CALM      30.15R
AUDUBON *      SUNNY     63  39  42 CALM      30.16R
CLARINDA *     SUNNY     64  37  36 CALM      30.16S
COUNCIL BLFS * MOSUNNY   61  45  55 CALM      30.15S
CRESTON *      SUNNY     64  28  25 N5        30.14S
HARLAN  *      MOSUNNY   61  41  48 CALM      30.18S
LAMONI         SUNNY     64  37  36 VRB5      30.12R
RED OAK *      SUNNY     64  37  36 CALM      30.15R
SHENANDOAH *   SUNNY     61  36  39 SW5       30.16S
$$

IAZ047>049-059>061-072>074-084-241600-
   CENTRAL IOWA

CITY           SKY/WX    TMP DP  RH WIND       PRES   REMARKS
AMES           SUNNY     65  36  34 NW7       30.13R
ANKENY *       SUNNY     63  37  39 VRB5      30.14R
BOONE *        SUNNY     64  34  32 VRB6      30.13R
CHARITON *     SUNNY     61  36  39 N5        30.11S
DES MOINES     MOSUNNY   63  35  35 NW5       30.13R
GRINNELL*      SUNNY     63  32  31 N3        30.11F
KNOXVILLE *    SUNNY     61  34  36 CALM      30.10S
MARSHALLTOWN   SUNNY     64  35  34 NW5       30.10S
NEWTON *       SUNNY     63  34  34 CALM      30.11F
PELLA *        SUNNY     62  33  33 CALM      30.11F
PERRY *        FAIR      62  31  30 W3        30.14S
$$

IAZ004>006-015-016-023>025-035-036-241600-
   NORTH CENTRAL IOWA

CITY           SKY/WX    TMP DP  RH WIND       PRES   REMARKS
ALGONA *       SUNNY     57  45  62 N8        30.16R
CLARION *      SUNNY     61  45  55 N7        30.14S
ESTHERVILLE    MOSUNNY   54  45  71 N9        30.16R
FORT DODGE *   MOSUNNY   60  45  57 NE6       30.15S
MASON CITY     SUNNY     60  45  57 NW8       30.15R
FOREST CITY *  FAIR      61  43  51 N5        30.14S
WEBSTER CITY * SUNNY     63  39  42 CALM      30.12S
IOWA FALLS *   FAIR      64  37  36 N3        30.14R
$$

IAZ007>011-017>019-026>030-037>042-050>054-066-241600-
   NORTHEAST IOWA

CITY           SKY/WX    TMP DP  RH WIND       PRES   REMARKS
CEDAR RAPIDS   FAIR      63  35  35 NE5       30.09S
CHARLES CITY * FAIR      63  41  45 N6        30.12S
CLINTON *        N/A     63  30  28 N14       30.07F
DECORAH *      FAIR      59  34  38 CALM      30.10S
DUBUQUE        FAIR      59  32  36 N7        30.09F
MONTICELLO *   FAIR      63  36  36 VRB5      30.09F
OELWEIN *      FAIR      64  32  29 N6        30.11S
WATERLOO       FAIR      62  37  39 CALM      30.10F
$$

IAZ064-065-067-068-078-241600-
   EAST CENTRAL IOWA

CITY           SKY/WX    TMP DP  RH WIND       PRES   REMARKS
DAVENPORT      FAIR      64  29  26 MISG      30.09F
IOWA CITY      FAIR      63  35  35 NE3       30.10F
MT. PLEASANT * SUNNY     61  32  33 NE9       30.08F
MUSCATINE *    FAIR      63  30  29 N7        30.08F
QUAD CITIES    FAIR      63  31  30 N6        30.06F
$$

IAZ062-063-075>077-085>089-095>099-241600-
   SOUTHEAST IOWA

CITY           SKY/WX    TMP DP  RH WIND       PRES   REMARKS
BURLINGTON     SUNNY     62  39  42 NE5       30.07F
FAIRFIELD *    SUNNY     63  37  39 N8        30.08S
FORT MADISON * SUNNY     63  43  48 N6        30.08F
KEOKUK *       SUNNY     63  48  59 N8        30.07F
OSKALOOSA *    FAIR      62  35  36 N3        30.11R
CENTERVILLE *    N/A     64  37  36 CALM      30.11F
OTTUMWA        SUNNY     64  39  39 N7        30.10S
WASHINGTON *   SUNNY     63  34  34 N8        30.10S
$$

ABBREVIATIONS USED IN REMARKS
   TC - TEMPERATURES IN CELSIUS
  WCI - WIND CHILL INDEX
   HX - HEAT INDEX
  VSB - VISIBILITY
$$




USA.gov is the U.S. government's official web portal to all federal, state and local government web resources and services.